Stations météo

réclame
Mon MeteoGroup
Maastricht, Pays-Bas (6380): Température de l'air & dewpoint: 11.01.2018 08:00:00 - 17.01.2018 08:00:00 (CET)Maastricht, Pays-Bas (6380): Température de l'air 5cm: 11.01.2018 08:00:00 - 17.01.2018 08:00:00 (CET)Maastricht, Pays-Bas (6380): Vitesse du vent & gusts: 11.01.2018 08:00:00 - 17.01.2018 08:00:00 (CET)Maastricht, Pays-Bas (6380): Direction du vent: 11.01.2018 08:00:00 - 17.01.2018 08:00:00 (CET)Maastricht, Pays-Bas (6380): reduced air pressure: 11.01.2018 08:00:00 - 17.01.2018 08:00:00 (CET)Maastricht, Pays-Bas (6380): visibility: 11.01.2018 08:00:00 - 17.01.2018 08:00:00 (CET)Maastricht, Pays-Bas (6380): Quantités de précipitations: 11.01.2018 08:00:00 - 17.01.2018 08:00:00 (CET)
Date & Time tt [°C] td [°C] tt 5cm [°C] ff [km/h] ff [knt] fx [km/h] fx [knt] dd ppp [hPa] vv [km] rr [mm]
17.01.2018 08:00:00 0,7 0,3 0,2 17 9 - - WSW 999,3 20 -
17.01.2018 07:00:00 1,8 -0,3 0,8 18 10 32 18 W 997,9 10 0,4
17.01.2018 06:00:00 0,8 0,1 0,4 24 13 61 33 W 996,7 9 1,4
17.01.2018 05:00:00 3,0 -0,2 2,1 22 12 47 25 WSW 995,1 10 0,0
17.01.2018 04:00:00 3,3 0,5 2,5 22 12 40 21 WSW 994,6 10 0,0
17.01.2018 03:00:00 3,3 1,5 2,5 26 14 43 23 WSW 994,0 10 0,1
17.01.2018 02:00:00 2,9 1,2 2,3 34 18 50 27 SW 993,6 10 0,0
17.01.2018 01:00:00 3,3 1,0 2,6 29 16 40 21 SW 993,6 10 0,0
17.01.2018 00:00:00 4,2 1,4 3,5 28 15 32 18 SW 993,9 10 0,0
16.01.2018 23:00:00 4,0 1,4 3,3 26 14 36 19 SW 994,5 10 0,0
16.01.2018 22:00:00 3,7 1,4 2,7 26 14 32 18 SW 995,0 10 0,0
16.01.2018 21:00:00 3,5 1,2 1,9 22 12 25 14 SW 995,4 10 0,0
16.01.2018 20:00:00 3,2 0,9 1,6 9 5 29 16 WSW 995,8 10 0,0
16.01.2018 19:00:00 3,9 0,8 3,2 16 9 32 18 W 995,8 10 0,2
16.01.2018 18:00:00 4,4 -0,1 3,0 13 7 32 18 WSW 995,9 10 0,0
16.01.2018 17:00:00 5,5 -1,4 3,8 18 10 32 18 W 995,6 10 0,0
16.01.2018 16:00:00 4,6 1,2 4,3 21 11 40 21 WNW 995,6 10 0,0
16.01.2018 15:00:00 7,0 0,6 6,9 21 11 58 31 W 995,1 10 0,0
16.01.2018 14:00:00 7,1 2,1 6,6 22 12 50 27 WSW 995,0 31 0,0
16.01.2018 13:00:00 6,6 2,0 5,7 24 13 47 25 W 995,2 10 0,0
16.01.2018 12:00:00 6,3 1,6 5,8 31 17 50 27 WSW 994,9 10 0,1
16.01.2018 11:00:00 5,5 3,0 4,5 16 9 47 25 W 994,1 10 1,6
16.01.2018 10:00:00 6,5 3,8 5,7 26 14 43 23 WSW 993,3 10 0,0
16.01.2018 09:00:00 6,3 3,7 5,7 26 14 43 23 WSW 993,3 10 0,0
16.01.2018 08:00:00 6,0 3,6 4,9 24 13 43 23 SW 992,9 10 0,0
16.01.2018 07:00:00 6,5 4,0 5,9 22 12 36 19 SW 992,8 10 0,0
16.01.2018 06:00:00 6,3 4,0 5,6 28 15 40 21 SW 993,1 10 0,0
16.01.2018 05:00:00 6,1 4,0 5,2 29 16 40 21 SW 993,6 10 0,0
16.01.2018 04:00:00 6,2 4,2 5,4 31 17 40 21 SW 994,0 10 0,0
16.01.2018 03:00:00 6,0 4,2 4,9 28 15 36 19 SW 994,7 10 0,0
16.01.2018 02:00:00 5,9 4,1 5,0 24 13 40 21 WSW 995,2 10 0,0
16.01.2018 01:00:00 6,1 4,9 5,5 22 12 32 18 WSW 995,5 8 0,1
16.01.2018 00:00:00 6,0 4,5 5,4 16 9 40 21 WSW 994,7 10 0,6
15.01.2018 23:00:00 7,6 6,5 7,0 29 16 40 21 SW 994,2 10 0,0
15.01.2018 22:00:00 6,9 6,3 6,4 39 21 43 23 SW 993,8 10 0,6
15.01.2018 21:00:00 5,7 4,7 5,3 39 21 58 31 SSW 993,7 10 0,8
15.01.2018 20:00:00 5,3 3,2 5,0 50 27 65 35 SSW 994,1 10 0,0
15.01.2018 19:00:00 5,4 3,2 4,8 54 29 76 41 SSW 995,0 10 0,1
15.01.2018 18:00:00 5,2 3,7 4,9 44 24 65 35 SSW 996,3 10 1,0
15.01.2018 17:00:00 5,9 3,4 5,4 46 25 68 37 SSW 997,6 10 0,4
15.01.2018 16:00:00 6,5 3,1 5,8 39 21 61 33 S 999,2 10 0,0
15.01.2018 15:00:00 6,4 3,4 6,1 46 25 61 33 SSW 1001,9 10 0,0
15.01.2018 14:00:00 6,7 3,4 6,4 41 22 61 33 SSW 1003,3 10 0,0
15.01.2018 13:00:00 6,5 3,5 6,3 39 21 58 31 SSW 1005,8 10 0,0
15.01.2018 12:00:00 6,4 3,7 6,2 37 20 47 25 SSW 1008,3 - 0,0
15.01.2018 11:00:00 5,9 3,2 5,4 31 17 43 23 SSW 1009,6 10 0,0
15.01.2018 10:00:00 4,9 2,6 4,4 29 16 40 21 SSW 1010,8 10 0,0
15.01.2018 09:00:00 4,4 2,4 3,7 21 11 36 19 SSW 1011,8 10 0,0
15.01.2018 08:00:00 4,4 2,6 4,0 29 16 36 19 SSW 1012,7 10 0,0
15.01.2018 07:00:00 4,2 2,3 3,8 26 14 40 21 SSW 1013,1 10 0,0
15.01.2018 06:00:00 3,9 1,8 2,5 22 12 29 16 SSW 1014,1 10 0,0
15.01.2018 05:00:00 3,9 1,1 3,3 18 10 25 14 SSW 1014,6 10 0,0
15.01.2018 04:00:00 4,1 1,0 3,7 24 13 29 16 S 1015,5 10 0,0
15.01.2018 03:00:00 4,1 1,0 3,5 26 14 29 16 S 1016,4 10 0,0
15.01.2018 02:00:00 3,8 0,7 3,3 18 10 29 16 S 1016,8 10 0,0
15.01.2018 01:00:00 3,4 0,3 2,5 22 12 25 14 S 1017,7 10 0,0
15.01.2018 00:00:00 2,5 -0,3 1,0 16 9 22 12 S 1018,3 10 0,0
14.01.2018 23:00:00 1,9 -0,4 -0,1 15 8 14 8 S 1019,0 10 0,0
14.01.2018 22:00:00 1,9 -0,4 -0,3 13 7 18 10 S 1019,1 10 0,0
14.01.2018 21:00:00 1,1 -0,7 -0,9 13 7 14 8 SE 1019,2 10 0,0
14.01.2018 20:00:00 1,8 -0,5 -0,4 11 6 14 8 ESE 1019,4 10 0,0
14.01.2018 19:00:00 2,2 -0,2 -0,1 9 5 14 8 SE 1019,5 10 0,0
14.01.2018 18:00:00 3,3 0,1 1,4 8 4 18 10 SE 1019,5 10 0,0
14.01.2018 17:00:00 4,2 0,6 2,1 9 5 14 8 SE 1019,4 10 0,0
14.01.2018 16:00:00 5,5 1,2 4,6 11 6 18 10 SE 1019,4 10 0,0
14.01.2018 15:00:00 6,2 1,5 5,8 11 6 18 10 ESE 1019,2 10 0,0
14.01.2018 14:00:00 6,1 1,4 6,6 8 4 18 10 SSE 1019,6 10 0,0
14.01.2018 13:00:00 6,0 1,4 6,8 9 5 18 10 ESE 1019,9 10 0,0
14.01.2018 12:00:00 5,2 1,4 5,8 11 6 22 12 ESE 1020,0 10 0,0
14.01.2018 11:00:00 3,7 0,8 2,8 9 5 25 14 E 1020,5 10 0,0
14.01.2018 10:00:00 2,1 0,1 0,8 9 5 14 8 E 1020,2 10 0,0
14.01.2018 09:00:00 0,0 -1,1 -2,0 8 4 18 10 E 1020,2 10 0,0
14.01.2018 08:00:00 0,1 -0,6 -1,7 11 6 14 8 ENE 1020,0 10 0,0
14.01.2018 07:00:00 0,8 -0,5 -0,4 13 7 22 12 ENE 1019,9 10 0,0
14.01.2018 06:00:00 1,3 -0,3 0,2 15 8 18 10 E 1019,7 10 0,0
14.01.2018 05:00:00 1,9 -0,1 0,6 15 8 22 12 E 1019,9 10 0,0
14.01.2018 04:00:00 2,6 0,1 1,4 15 8 22 12 E 1020,1 10 0,0
14.01.2018 03:00:00 3,2 0,6 1,8 15 8 18 10 E 1020,2 10 0,0
14.01.2018 02:00:00 4,3 1,0 3,6 11 6 14 8 E 1020,3 10 0,0
14.01.2018 01:00:00 4,5 1,0 3,8 9 5 18 10 E 1020,5 10 0,0
14.01.2018 00:00:00 4,6 0,8 3,8 11 6 18 10 E 1021,1 10 0,0
13.01.2018 23:00:00 4,4 0,8 3,6 11 6 14 8 E 1021,4 10 0,0
13.01.2018 22:00:00 4,2 0,7 3,5 11 6 14 8 E 1021,6 10 0,0
13.01.2018 21:00:00 3,8 0,4 2,9 9 5 18 10 E 1022,1 10 0,0
13.01.2018 20:00:00 2,7 0,1 1,3 9 5 22 12 ENE 1022,3 10 0,0
13.01.2018 19:00:00 1,7 -0,9 -0,5 9 5 14 8 E 1022,5 10 0,0
13.01.2018 18:00:00 2,2 -0,5 -0,2 5 3 25 14 E 1022,8 10 0,0
13.01.2018 17:00:00 3,3 0,2 2,1 16 9 22 12 - 1022,9 10 0,0
13.01.2018 16:00:00 4,8 1,1 4,0 16 9 22 12 E 1022,8 10 0,0
13.01.2018 15:00:00 6,1 1,5 5,6 15 8 25 14 ESE 1022,8 10 0,0
13.01.2018 14:00:00 6,1 1,9 6,3 13 7 18 10 E 1023,6 10 0,0
13.01.2018 13:00:00 6,3 2,5 6,4 9 5 18 10 ESE 1024,3 10 0,0
13.01.2018 12:00:00 5,9 3,3 6,4 14 8 18 10 ESE 1024,9 10 0,0
13.01.2018 11:00:00 4,5 3,9 4,2 7 4 14 8 E 1025,2 6 0,0
13.01.2018 10:00:00 2,7 2,7 1,2 9 5 11 6 E 1025,0 1,4 0,0
13.01.2018 09:00:00 1,3 1,3 0,0 8 4 11 6 ENE 1024,8 0,3 0,0
13.01.2018 08:00:00 0,0 0,0 -1,4 9 5 14 8 E 1024,8 0,4 0,0
13.01.2018 07:00:00 0,7 0,7 -1,1 8 4 7 4 E 1025,0 0,4 0,0
13.01.2018 06:00:00 1,5 1,5 0,1 5 3 7 4 E 1025,1 2,6 0,0
13.01.2018 05:00:00 1,7 1,7 0,0 8 4 11 6 E 1025,4 2,3 0,0
13.01.2018 04:00:00 0,9 0,9 0,1 5 3 11 6 ENE 1025,8 0,2 0,0
13.01.2018 03:00:00 1,3 1,2 0,7 4 2 7 4 E 1026,0 0,2 0,0
13.01.2018 02:00:00 1,9 1,9 0,8 4 2 7 4 - 1026,2 0,1 0,0
13.01.2018 01:00:00 3,0 3,0 1,4 5 3 7 4 E 1026,4 1,3 0,0
13.01.2018 00:00:00 4,2 4,1 4,0 5 3 7 4 E 1026,8 2,2 0,0
12.01.2018 23:00:00 4,0 4,0 3,7 5 3 7 4 NE 1027,0 1,9 0,0
12.01.2018 22:00:00 3,7 3,7 3,2 5 3 14 8 ENE 1027,1 2,0 0,0
12.01.2018 21:00:00 2,6 2,6 1,1 9 5 11 6 ENE 1027,2 1,3 0,0
12.01.2018 20:00:00 1,9 1,8 0,2 5 3 11 6 E 1026,8 0,8 0,0
12.01.2018 19:00:00 1,9 1,8 0,4 5 3 11 6 NE 1026,7 0,4 0,0
12.01.2018 18:00:00 4,5 3,8 2,0 2 1 4 2 - 1026,6 2,8 0,0
12.01.2018 17:00:00 5,6 4,7 5,5 2 1 4 2 NNE 1026,6 3,1 0,0
12.01.2018 16:00:00 5,8 4,8 5,8 4 2 4 2 - 1026,5 2,6 0,0
12.01.2018 15:00:00 5,7 4,7 6,0 4 2 4 2 - 1026,4 2,2 0,0
12.01.2018 14:00:00 5,6 4,6 5,9 4 2 4 2 - 1026,2 2,7 0,0
12.01.2018 13:00:00 5,4 4,8 5,8 2 1 7 4 - 1026,5 3,1 0,0
12.01.2018 12:00:00 5,2 4,5 5,5 4 2 7 4 - 1026,8 2,5 0,0
12.01.2018 11:00:00 5,1 4,6 5,3 4 2 7 4 - 1026,9 2,1 0,0
12.01.2018 10:00:00 4,9 4,6 5,0 2 1 7 4 - 1026,6 1,4 0,0
12.01.2018 09:00:00 4,8 4,6 4,8 4 2 7 4 - 1026,1 1,9 0,0
12.01.2018 08:00:00 4,8 4,7 4,7 8 4 7 4 NW 1025,7 2,2 0,0
12.01.2018 07:00:00 4,7 4,6 4,7 4 2 11 6 NW 1025,2 1,6 0,0
12.01.2018 06:00:00 4,7 4,5 4,7 4 2 11 6 - 1025,0 2,2 0,0
12.01.2018 05:00:00 4,8 4,5 4,8 5 3 11 6 N 1024,8 2,0 0,0
12.01.2018 04:00:00 5,1 4,7 4,9 5 3 11 6 N 1024,8 2,4 0,0
12.01.2018 03:00:00 5,2 5,1 5,1 9 5 14 8 NNW 1024,4 2,8 0,0
12.01.2018 02:00:00 5,1 5,1 5,1 9 5 18 10 NNW 1024,0 2,0 0,0
12.01.2018 01:00:00 5,5 5,5 5,5 9 5 14 8 NNW 1023,8 1,3 0,0
12.01.2018 00:00:00 5,6 5,3 4,9 4 2 11 6 - 1023,3 2,5 0,0
11.01.2018 23:00:00 6,0 5,8 5,7 4 2 11 6 NNW 1023,0 3,1 0,0
11.01.2018 22:00:00 6,0 5,7 5,6 5 3 7 4 NW 1022,4 2,9 0,0
11.01.2018 21:00:00 6,1 5,8 5,8 5 3 7 4 WNW 1022,1 3,5 0,0
11.01.2018 20:00:00 5,4 5,4 3,8 5 3 7 4 NE 1021,3 4,8 0,0
11.01.2018 19:00:00 5,4 4,9 3,2 8 4 11 6 NNE 1020,7 7 0,0
11.01.2018 18:00:00 5,9 4,8 5,0 9 5 18 10 NNE 1020,2 10 0,0
11.01.2018 17:00:00 6,7 5,5 5,9 9 5 14 8 N 1019,4 10 0,0
11.01.2018 16:00:00 7,4 5,8 7,2 9 5 14 8 NE 1018,7 10 0,0
11.01.2018 15:00:00 8,0 6,1 8,0 9 5 11 6 NE 1017,9 10 0,0
11.01.2018 14:00:00 7,8 5,5 7,5 8 4 11 6 NNE 1017,1 10 0,0
11.01.2018 13:00:00 7,9 5,6 7,8 4 2 11 6 NE 1016,8 23 0,0
11.01.2018 12:00:00 7,4 5,7 7,2 8 4 11 6 ENE 1016,7 10 0,0
11.01.2018 11:00:00 6,2 5,2 6,0 11 6 29 16 ENE 1016,4 10 0,0
11.01.2018 10:00:00 5,8 4,4 5,2 9 5 25 14 ENE 1015,6 10 0,0
11.01.2018 09:00:00 4,4 3,6 3,4 4 2 7 4 ENE 1014,8 10 0,0
11.01.2018 08:00:00 4,6 3,6 3,9 2 1 11 6 - 1014,1 10 0,0

tt = Température de l'air
td = dewpoint
tt 5cm = Température de l'air 5cm
ff = Vitesse du vent
fx = gusts
dd = Direction du vent
ppp = reduced air pressure
vv = visibility
rr = Quantités de précipitations

stations d'obs. à proximité